Погода Остров Визе

Погода Остров Визе : погода сейчас, прогноз погоды и архив. Всё, что Вы хотите узнать о погоде Остров Визе!

Поиск расширенной информации на нашем сайте:

Другие новости

Новости СМИ2

Главная страница сайта

Новости сайта

03.07.2017

Напоминаем, что на нашем специализированном сайте Метеоцентр.Азия вы можете получить высокодетализированные автоматические прогнозы погоды по пунктам России, СНГ и мира в авиационном формате (включающие направление и скорость ветра, видимость, явления погоды, количество и форму облачности, нижнюю и верхнюю границу облачности).


Погода Остров Визе - сегодня

Время (UTC), дата Ветер
(°,м/с) 
Видим.   Явления Облачность Т
(°С)
Тd
(°С)
f(%) Тe
(°С)
Pmin
(гПа)
dP
(гПа)
Po
(мм)
O2
(г/м3)
Тmin Tmax R s Состояние
почвы
00 13.04.18 100 (В) 0600 м  туман  9/9 300 м 
[Sc]
-19.9 -21.1 90 -20  1017.3  -1.4  762  333  -23.1      неравномерный
сухой снег
100% 
03 13.04.18 тихо ()   0600 м  переохл. туман  ясно 
-19.5 -20.5 92 -20  1015.6  -1.7  760  332           
06 13.04.18 тихо ()   25000 м  {туман}  ясно 
-18.7 -19.5 93 -19  1013.4  -2.2  759  330           
09 13.04.18 080 (В) 27000 м    ясно 
-18.5 -19.4 93 -21  1010.8  -2.6  757  329           
15 13.04.18 060 (СВ) 23000 м    3/0 верхняя 
[Ci fib]
-22.9 -24.4 88 -29  1005.8  -2.6  753  333           
18 13.04.18 060 (СВ) 24000 м    1/0 верхняя 
[Ci fib]
-25.2 -27 85 -31  1003  -2.8  751  335           
21 13.04.18 050 (СВ) 20000 м    3/0 верхняя 
[Ci fib]
-23.4 -25.1 86 -29  1001.1  -1.8  749  332           
03 14.04.18 040 (СВ) 20000 м    ясно 
-20.9 -22.3 88 -27  999.5  -0.6  748  328           
06 14.04.18 030 (СВ) 15000 м    ясно 
-18.5 -19.7 90 -24  999.2  -0.3  748  325           
09 14.04.18 030 (СВ) 25000 м    ясно 
-18.4 -19.5 91 -25  999.5  0.3  748  325           
03 15.04.18 020 (С) 20000 м  позёмок{снег}  ясно 
-20.8 -22.2 88 -29  1002.4  0.7  750  329           
15 16.04.18 350 (С) 13-17{19}  0400 м  сильная метель  ?/?  
-18.2 -19.3 91 -29  997.6  -0.2  747  324           
00 18.04.18 130 (ЮВ) 6{11}  20000 м  позёмок{снег}  9/9 660 м 
[Sc]
-15.5 -16.5 92 -22  1005  1.3  752  323  -15.7    0.4  10  неравномерный
сухой снег
100% 
15 18.04.18 060 (СВ) 26000 м    ясно 
-19.4 -20.6 90 -26  1012.6  1.4  758  330           
18 18.04.18 050 (СВ) 22000 м    ясно 
-19.3 -20.4 91 -25  1013.4  0.8  759  331           
21 18.04.18 020 (С) 21000 м    1/0 верхняя 
[Ci fib]
-20.3 -21.5 90 -27  1013.9  0.4  759  332           
03 19.04.18 010 (С) 5000 м  дымка{туман}  8/0 верхняя 
[Ci fib]
-17 -18.1 91 -22  1013.7  -0.2  759  328           
06 19.04.18 010 (С) 15000 м  {туман}  9/0 верхняя 
[Ci]
-12.8 -13.5 94 -18  1013.2  -0.5  758  322           
09 19.04.18 010 (С) 20000 м    ясно 
-11.7 -12.9 91 -17  1012.9  -0.3  758  320           
15 19.04.18 350 (С) 6000 м  слаб. снег  10/0 средняя, верхняя 
[As op|Ci]
-15.2 -16.1 93 -20  1012.4  -0.3  758  325           
18 19.04.18 340 (С) 5000 м  слаб. снег  9/0 средняя, верхняя 
[As op|Ci sp]
-16.8 -17.7 93 -23  1011.5  -0.9  757  327           
21 19.04.18 330 (СЗ) 5000 м  слаб. снег  10/0 средняя, верхняя 
[As op|Ci sp]
-14.3 -15 94 -20  1010.3  -1.2  756  323           
21 20.04.18 350 (С) 5000 м  слаб. снег  9/0 средняя, верхняя 
[As op|Ci fib]
-14 -14.6 95 -18  1005.6  -0.4  753  321           
06 21.04.18 тихо ()   6000 м  слаб. снег  10/0 средняя 
[As trans]
-8.5 -9.4 93 -9  1005.7  0.2  753  314           
09 21.04.18 тихо ()   24000 м  {снег}  6/0 средняя, верхняя 
[Ac trans|Ci fib]
-0.7 -2.9 85 -1  1006  0.3  753  305           
Время (UTC), дата Ветер
(°,м/с) 
Видим.   Явления Облачность Т
(°С)
Тd
(°С)
f(%) Тe
(°С)
Pmin
(гПа)
dP
(гПа)
Po
(мм)
O2
(г/м3)
Тmin Tmax R s Состояние
почвы

Для получения пояснительной информации подведите курсор к названию столбца.

ПОГОДА Остров Визе - архив

Всё, что Вы хотите узнать о погоде Остров Визе - удобно и подробно!

Выберите нужную дату (начиная с 1 января 2015* года) и нажмите кнопку "Найти".
Будут отображены архивные сводки погоды по пункту Остров Визе, начиная с указанной даты.


Отображать данные в формате CSV (для использования в таблицах Excel)


Внимание! Наш архив погоды предназначен исключительно для личного некоммерческого использования в познавательных целях. Если Вам необходимы официальные справки о состоянии погоды (для производственных, юридических, коммерческих и т.п. целей), обращайтесь в органы Росгидромета.

*Примечание: данная дата относится к архиву по метеостанциям СССР (Россия, СНГ, Балтия).
Архив по метеостанциям Зарубежной Европы и Азии (кроме Китая) хранится 10 дней, по другим регионам земного шара (Китай, Африка, Америка, Австралия, Океания) - 1 день.

Остров Визе - район местоположения метеостанции


Название, широта, долгота, высота метеостанции:
Остров Визе 79.5°ш. 77°д. 10 м над ур. моря [Российская Федерация]

Дополнительная информация

В oтличие oт бoльшинства пoгoдных сайтoв мы публикуем пoдрoбную метеoинфoрмацию в детальнoм прoфессиoнальнoм фoрмате.

Характеристики температуры и влажнoсти вoздуха измеряются на высoте 2 м в тени вдали oт зданий и деревьев.
Скoрoсть ветра измеряется на высoте 10 м (на урoвне рoста челoвека скoрoсть ветра ниже в 1.5-2 раза). Если метеoстанция нахoдится в гoрoде или в лесу, тo скoрoсть ветра занижена на 2-4 м/с пo сравнению с oткрытым местoм. Скoрoсть ветра над акватoриями крупных рек и oзёр, а также на вершинах хoлмoв на 2-5 м/с выше, чем в oбычных услoвиях.
Атмoсфернoе давление в разных тoчках местнoсти мoжет значительнo oтличаться oт давления на метеoстанции, в зависимoсти oт услoвий рельефа (при пoдъёме на 10 м давление пoнижается примернo на 1 мм рт.ст.).